Regional Weather Roundup
Issued by NWS

Home | Current Version | Previous Version | Text Only | Print | Product List | Glossary On
Versions: 1 2 3 4 5 6 7 8 9 10 11 12 13 14 15 16 17 18 19 20 21 22 23 24 25 26 27 28 29 30 31 32 33 34 35 36 37 38 39 40 41 42 43 44 45 46 47 48 49 50
000
ASUS43 KMPX 251001
RWRMN
WEATHER ROUNDUP FOR MINNESOTA
NATIONAL WEATHER SERVICE TWIN CITIES/CHANHASSEN MN
500 AM CDT MON MAY 25 2015


NOTE: "FAIR" INDICATES FEW OR NO CLOUDS BELOW 12,000 FEET WITH NO
SIGNIFICANT WEATHER AND/OR OBSTRUCTIONS TO VISIBILITY. N/A MEANS
CURRENT SKY AND/OR WEATHER CONDITIONS ARE NOT AVAILABLE.

MNZ060>063-068>070-251100-
   Twin Cities Metro

CITY           SKY/WX    TMP DP  RH WIND       PRES   REMARKS
TWIN CITIES    CLOUDY    58  57  97 E9        29.67F
ST PAUL        CLOUDY    58  57  97 SE6       29.68F FOG
CRYSTAL        CLOUDY    57  57 100 E3        29.67F FOG
BLAINE         CLOUDY    59  57  94 E5        29.68F FOG
LAKEVILLE      LGT RAIN  57  57 100 CALM      29.67F
EDEN PRAIRIE   CLOUDY    59  58  96 SE7       29.66F FOG
SOUTH ST PAUL  CLOUDY    58  57  97 SE3       29.68F FOG
LAKE ELMO      CLOUDY    57  55  94 E3        29.70S
$$
MNZ001>005-007-008-013>017-022>024-027-028-251100-
   Northwest Minnesota

CITY           SKY/WX    TMP DP  RH WIND       PRES   REMARKS
BEMIDJI        RAIN      55  54  97 CALM      29.82F
HALLOCK        CLOUDY    54  50  87 CALM      29.80F
ROSEAU         CLOUDY    55  48  76 CALM      29.81F
WARROAD        CLOUDY    54  48  82 CALM      29.82F
THIEF RVR FALL CLOUDY    57  50  77 CALM      29.83S
CROOKSTON      CLOUDY    57  52  82 SW3       29.82F
FOSSTON        DRIZZLE   54  48  82 CALM      29.82F
DETROIT LAKES  LGT RAIN  55  54  94 NE12      29.79F
MOORHEAD       RAIN      57  55  94 N13       29.80F
PARK RAPIDS    RAIN      57  55  93 N13       29.77F FOG
MAHNOMEN       DRIZZLE   55  55  97 NE6       29.82F
$$
MNZ006-009>011-018-025>026-251100-
   North Central Minnesota

CITY           SKY/WX    TMP DP  RH WIND       PRES   REMARKS
BAUDETTE       CLOUDY    52  50  93 CALM      29.80F
FLAG ISLAND    CLOUDY    63  48  59 N8        29.80F
INTL FALLS     CLOUDY    52  49  89 CALM      29.82S
WASKISH        CLOUDY    55  52  88 CALM      29.82F
BIG FORK       LGT RAIN  55  52  88 CALM      29.82F
LONGVILLE      RAIN      55  55 100 NE5       29.78S
GRAND RAPIDS   CLOUDY    55  52  88 NE5       29.80F
CRANE LAKE     CLOUDY    52  50  93 CALM      29.84F
ORR            CLOUDY    55  50  82 CALM      29.81F
COOK           RAIN      55  54  94 CALM      29.83F
WALKER         LGT RAIN  56  55  97 N3        29.81S
$$
MNZ012-019>021-037-251100-
   Northeast Minnesota

CITY           SKY/WX    TMP DP  RH WIND       PRES   REMARKS
DULUTH         LGT RAIN  58  55  90 NE15      29.76F
ELY            LGT RAIN  55  52  88 CALM      29.84F
HIBBING        RAIN      56  54  93 NE7       29.81F
EVELETH        RAIN      57  55  94 NE6       29.83F
DULUTH HARBOR  RAIN      48  46  93 E10       29.77F
TWO HARBORS    LGT RAIN  61  55  82 NE8       29.77F
GRAND MARAIS     N/A     45  41  86 NE5       29.85F
G MARAIS ARPRT DRIZZLE   50  45  81 CALM      29.88S
$$
MNZ029>031-032-039>041-046>048-054>057-064-251100-
   West Central Minnesota

CITY           SKY/WX    TMP DP  RH WIND       PRES   REMARKS
FERGUS FALLS   DRIZZLE   57  57 100 NE9G16    29.74F
WHEATON        HVY RAIN  55  54  94 N8        29.75F
MORRIS         RAIN      57  57 100 N7        29.70F
ALEXANDRIA     LGT RAIN  57  57 100 NE7       29.72F FOG
ELBOW LAKE     LGT RAIN  56  56  98 NE7       29.72F
WADENA         HVY RAIN  55  55 100 NE12      29.73F
GLENWOOD       CLOUDY    55  55 100 NE8       29.71F
APPLETON       LGT RAIN  59  55  88 N5        29.70F
BENSON         HVY RAIN  57  55  94 N3        29.70F
ORTONVILLE     LGT RAIN  57  55  94 N6        29.72S
MADISON        CLOUDY    57  55  94 N5        29.71F
WILLMAR        DRIZZLE   57  57 100 CALM      29.70S
$$
MNZ033>034-036-042>043-049>051-058-059-251100-
   Central Minnesota

CITY           SKY/WX    TMP DP  RH WIND       PRES   REMARKS
ST CLOUD       LGT RAIN  57  56  96 NE8       29.68F FOG
SAUK CENTRE    RAIN      56  56  99 CALM      29.70F
PAYNESVILLE    DRIZZLE   54  54 100 N3        29.69F
AITKIN         LGT RAIN  57  54  88 NE8       29.72F
PINE RIVER     LGT RAIN  57  55  94 NE9G16    29.79F
BRAINERD       LGT RAIN  57  56  96 NE8       29.72F FOG
STAPLES        RAIN      55  55 100 NE7       29.72F
LONG PRAIRIE   DRIZZLE   55  54  94 N5        29.71F
LITTLE FALLS   HVY RAIN  55  54  94 NE5       29.71F
LITCHFIELD     CLOUDY    57  57 100 NE2       29.68F
BUFFALO        CLOUDY    57  55  92 NE6       29.67F FOG
MAPLE LAKE     CLOUDY    58  57  98 NE7       29.68F FOG
$$
MNZ037-044-045-052-053-251100-
   East Central Minnesota

CITY           SKY/WX    TMP DP  RH WIND       PRES   REMARKS
PRINCETON      DRIZZLE   57  55  94 NE6       29.69F
MORA           HVY RAIN  54  52  94 E3        29.73S
CAMBRIDGE      HVY RAIN  59  52  77 CALM      29.68F
RUSH CITY      CLOUDY    57  56  95 NE6       29.70F
MOOSE LAKE     RAIN      54  52  94 NE7G17    29.73F
HINCKLEY       DRIZZLE   57  57 100 NE6       29.72F
CLOQUET        LGT RAIN  57  55  94 NE9       29.75F
MCGREGOR       CLOUDY    57  55  94 NE8       29.74F
$$
MNZ071>073-080-081-089-090-097-098-251100-
   Southwest Minnesota

CITY           SKY/WX    TMP DP  RH WIND       PRES   REMARKS
MONTEVIDEO     DRIZZLE   57  57 100 N3        29.71S
GRANITE FALLS  DRIZZLE   57  57 100 NW5       29.71S
CANBY          DRIZZLE   57  56  97 NW3       29.73S
MARSHALL       CLOUDY    57  54  88 NW7       29.70S
REDWOOD FALLS  FOG       58  57  97 W5        29.68S VSB 3/4
OLIVIA         CLOUDY    54  54 100 CALM      29.68S FOG
WINDOM         CLOUDY    57  57 100 W7        29.69F FOG
WORTHINGTON    CLOUDY    57  55  94 W10       29.72R
JACKSON        CLOUDY    59  59 100 W7        29.71S
TRACY          FOG       58  57  99 W3        29.71S VSB 1
SLAYTON        CLOUDY    56  56 100 CALM      29.73R FOG
$$
MNZ065>067-074>077-082>085-091>093-251100-
   South Central Minnesota

CITY           SKY/WX    TMP DP  RH WIND       PRES   REMARKS
MANKATO        CLOUDY    61  59  94 SW9       29.68S
NEW ULM        FOG       57  57 100 W6        29.68S VSB 1/2
ST JAMES       FOG       61  61 100 SW5       29.70S VSB 3/4
FAIRMONT       CLOUDY    61  55  82 SW10      29.69S
GLENCOE        FOG       60  60 100 CALM      29.66S VSB 1
FARIBAULT      CLOUDY    61  61 100 CALM      29.67F FOG
OWATONNA       CLOUDY    63  61  94 SW9       29.69S
WASECA         CLOUDY    59  57  94 S8        29.70R FOG
ALBERT LEA     CLOUDY    63  61  94 SW6       29.69F FOG
$$
MNZ078>079-086>088-094>096-251100-
   Southeast Minnesota

CITY           SKY/WX    TMP DP  RH WIND       PRES   REMARKS
ROCHESTER      CLOUDY    60  60 100 S8        29.72S FOG
RED WING       DRIZZLE   57  57 100 SE6       29.68F
STANTON        CLOUDY    60  58  92 SE3       29.66F FOG
DODGE CENTER   CLOUDY    63  61  94 SW10      29.70S FOG
WINONA         CLOUDY    59  59 100 CALM      29.70F FOG
AUSTIN         CLOUDY    63  61  94 SW5       29.70S FOG
PRESTON        CLOUDY    61  60  97 SW9       29.72S FOG
$$
ABBREVIATIONS USED IN REMARKS
   TC - TEMPERATURES IN CELSIUS
  WCI - WIND CHILL INDEX
   HX - HEAT INDEX
  VSB - VISIBILITY
$$


USA.gov is the U.S. government's official web portal to all federal, state and local government web resources and services.